Weather History for Bloomington, IN

Change the Weather History Date:

Tuesday, November 20, 2012

  Actual Average Record
Temperature  
Mean Temperature 49 °F 42 °F  
Max Temperature 59 °F 51 °F 66 °F (2003)
Min Temperature 39 °F 32 °F 23 °F (2000)
Degree Days  
Heating Degree Days 16 23  
Month to date heating degree days 457 379  
Since 1 July heating degree days 952 798  
Cooling Degree Days 0 0  
Month to date cooling degree days 0 0  
Year to date cooling degree days 1309 926  
Moisture  
Dew Point 40 °F    
Average Humidity 68    
Maximum Humidity 85    
Minimum Humidity 51    
Precipitation  
Precipitation 0.00 in 0.12 in 0.20 in (1998)
Month to date precipitation 1.12 2.67  
Year to date precipitation 28.59 42.74  
Sea Level Pressure  
Sea Level Pressure 30.11 in    
Wind  
Wind Speed 2 mph (West)    
Max Wind Speed 9 mph    
Max Gust Speed 13 mph    
Visibility 10 miles    
Events      
T = Trace of Precipitation, MM = Missing Value Source: NWS Daily Summary

Daily Weather History Graph

Daily Weather History Graph

Search for Another Location

Airport:

Trip Planner

Search our weather history database for the weather conditions in past years. The results will help you decide how hot, cold, wet, or windy it might be!

Date:

Astronomy

Nov. 20, 2012 Rise Set
Actual Time 7:35 AM EST 5:28 PM EST
Civil Twilight 7:06 AM EST 5:57 PM EST
Nautical Twilight 6:34 AM EST 6:29 PM EST
Astronomical Twilight 6:02 AM EST 7:01 PM EST
Moon 1:11 PM EST (11/20) No Moon Set
Length of Visible Light 10h 50m
Length of Day
9h 52m
Waxing Crescent, 51% of the Moon is Illuminated
Nov 20
Waxing Crescent
Nov 28
Full
Dec 6
Last Quarter
Dec 13
New
Dec 20
First Quarter

Hourly Weather History & Observations

Time (EST) Temp. Dew Point Humidity Pressure Visibility Wind Dir Wind Speed Gust Speed Precip Events Conditions
12:53 AM 45.0 °F 39.9 °F 82% 30.16 in 10.0 mi Calm Calm - N/A   Overcast
1:53 AM 45.0 °F 39.9 °F 82% 30.14 in 10.0 mi Calm Calm - N/A   Overcast
3:53 AM 46.0 °F 39.9 °F 79% 30.13 in 10.0 mi Calm Calm - N/A   Overcast
4:53 AM 46.0 °F 39.0 °F 76% 30.12 in 10.0 mi Calm Calm - N/A   Overcast
5:53 AM 42.1 °F 35.1 °F 76% 30.12 in 10.0 mi Calm Calm - N/A   Clear
6:53 AM 39.9 °F 35.1 °F 83% 30.12 in 10.0 mi Calm Calm - N/A   Partly Cloudy
7:53 AM 44.1 °F 39.9 °F 85% 30.12 in 9.0 mi Calm Calm - N/A   Overcast
8:53 AM 48.0 °F 37.9 °F 68% 30.12 in 10.0 mi Calm Calm - N/A   Overcast
9:53 AM 53.1 °F 37.0 °F 55% 30.12 in 10.0 mi SSW 5.8 mph - N/A   Mostly Cloudy
10:53 AM 55.9 °F 37.9 °F 51% 30.12 in 10.0 mi SSW 6.9 mph - N/A   Overcast
11:53 AM 57.0 °F 39.0 °F 51% 30.11 in 10.0 mi West 6.9 mph - N/A   Overcast
12:53 PM 57.0 °F 39.9 °F 53% 30.08 in 10.0 mi Calm Calm - N/A   Overcast
1:53 PM 59.0 °F 41.0 °F 51% 30.07 in 10.0 mi WSW 8.1 mph - N/A   Overcast
2:53 PM 57.9 °F 42.1 °F 56% 30.06 in 10.0 mi West 4.6 mph - N/A   Overcast
3:53 PM 57.9 °F 42.1 °F 56% 30.06 in 10.0 mi West 3.5 mph - N/A   Overcast
4:53 PM 57.0 °F 42.1 °F 57% 30.07 in 10.0 mi Calm Calm - N/A   Overcast
5:53 PM 54.0 °F 42.1 °F 64% 30.09 in 10.0 mi Calm Calm - N/A   Overcast
6:53 PM 54.0 °F 42.1 °F 64% 30.11 in 10.0 mi Calm Calm - N/A   Overcast
7:53 PM 53.1 °F 42.1 °F 66% 30.12 in 10.0 mi Calm Calm - N/A   Overcast
8:53 PM 52.0 °F 42.1 °F 69% 30.13 in 10.0 mi North 4.6 mph - N/A   Overcast
9:53 PM 52.0 °F 42.1 °F 69% 30.14 in 9.0 mi Calm Calm - N/A   Overcast
10:53 PM 52.0 °F 42.1 °F 69% 30.14 in 10.0 mi Calm Calm - N/A   Overcast
11:53 PM 50.0 °F 43.0 °F 77% 30.14 in 8.0 mi Calm Calm - N/A   Mostly Cloudy